| time (UTC) | temp C | wind direction | speed KPH | gust KPH | rain 1hr cm | rain 24hr cm | rain mn cm | humidity % | barometer mb |
| 20260505125031 | 19 | 293 | 0.0 | 11.3 | 0.00 | 0.00 | 0.00 | 79 | 1003.1 |
| 20260505124546 | 19 | 110 | 3.2 | 11.3 | 0.00 | 0.00 | 0.00 | 79 | 1003.2 |
| 20260505124030 | 19 | 105 | 1.6 | 11.3 | 0.00 | 0.00 | 0.00 | 78 | 1003.2 |
| 20260505123530 | 19 | 185 | 1.6 | 11.3 | 0.00 | 0.00 | 0.00 | 79 | 1003.2 |
| 20260505123047 | 19 | 0 | 1.6 | 14.5 | 0.00 | 0.00 | 0.00 | 79 | 1003.0 |
| 20260505122531 | 19 | 82 | 3.2 | 14.5 | 0.00 | 0.00 | 0.00 | 79 | 1003.1 |
| 20260505122035 | 19 | 223 | 3.2 | 17.7 | 0.00 | 0.00 | 0.00 | 79 | 1002.9 |
| 20260505121540 | 19 | 204 | 4.8 | 20.9 | 0.00 | 0.00 | 0.00 | 79 | 1002.8 |
| 20260505121031 | 19 | 59 | 6.4 | 20.9 | 0.00 | 0.00 | 0.00 | 79 | 1002.9 |
| 20260505120529 | 19 | 44 | 9.7 | 20.9 | 0.00 | 0.00 | 0.00 | 79 | 1002.9 |
| 20260505120043 | 19 | 101 | 8.0 | 20.9 | 0.00 | 0.00 | 0.00 | 79 | 1002.8 |
| 20260505115528 | 19 | 85 | 6.4 | 29.0 | 0.00 | 0.00 | 0.00 | 79 | 1002.8 |
| 20260505115033 | 19 | 65 | 6.4 | 29.0 | 0.00 | 0.00 | 0.00 | 79 | 1002.7 |
| 20260505114544 | 19 | 66 | 11.3 | 20.9 | 0.00 | 0.00 | 0.00 | 79 | 1002.7 |
| 20260505114030 | 19 | 100 | 11.3 | 19.3 | 0.00 | 0.00 | 0.00 | 79 | 1002.7 |
| 20260505113530 | 19 | 81 | 8.0 | 19.3 | 0.00 | 0.00 | 0.00 | 79 | 1002.6 |
| 20260505113042 | 19 | 79 | 8.0 | 16.1 | 0.00 | 0.00 | 0.00 | 79 | 1002.6 |
| 20260505112531 | 19 | 51 | 4.8 | 16.1 | 0.00 | 0.00 | 0.00 | 79 | 1002.6 |
| 20260505112029 | 19 | 77 | 1.6 | 11.3 | 0.00 | 0.00 | 0.00 | 79 | 1002.5 |
| 20260505111543 | 19 | 127 | 3.2 | 14.5 | 0.00 | 0.00 | 0.00 | 79 | 1002.5 |
| 20260505111030 | 19 | 65 | 4.8 | 17.7 | 0.00 | 0.00 | 0.00 | 79 | 1002.4 |
| 20260505110530 | 19 | 57 | 3.2 | 17.7 | 0.00 | 0.00 | 0.00 | 79 | 1002.4 |
| 20260505102028 | 19 | 45 | 8.0 | 19.3 | 0.00 | 0.00 | 0.00 | 78 | 1001.7 |
| 20260505101542 | 19 | 94 | 3.2 | 14.5 | 0.00 | 0.00 | 0.00 | 79 | 1001.7 |
| 20260505101028 | 19 | 65 | 4.8 | 12.9 | 0.00 | 0.00 | 0.00 | 78 | 1001.7 |
| 20260505100528 | 19 | 81 | 1.6 | 20.9 | 0.00 | 0.00 | 0.00 | 78 | 1001.6 |
| 20260505100047 | 19 | 131 | 6.4 | 20.9 | 0.00 | 0.00 | 0.00 | 78 | 1001.6 |
| 20260505095527 | 19 | 86 | 9.7 | 17.7 | 0.00 | 0.00 | 0.00 | 78 | 1001.5 |
| 20260505095031 | 19 | 70 | 3.2 | 16.1 | 0.00 | 0.00 | 0.00 | 78 | 1001.5 |
| 20260505094537 | 19 | 108 | 4.8 | 16.1 | 0.00 | 0.00 | 0.00 | 77 | 1001.5 |
| 20260505094027 | 20 | 79 | 1.6 | 17.7 | 0.00 | 0.00 | 0.00 | 77 | 1001.5 |
| 20260505093527 | 20 | 98 | 6.4 | 17.7 | 0.00 | 0.00 | 0.00 | 77 | 1001.5 |
| 20260505093040 | 20 | 108 | 4.8 | 16.1 | 0.00 | 0.00 | 0.00 | 76 | 1001.6 |
| 20260505092526 | 20 | 356 | 3.2 | 11.3 | 0.00 | 0.00 | 0.00 | 76 | 1001.6 |
| 20260505092028 | 20 | 70 | 1.6 | 11.3 | 0.00 | 0.00 | 0.00 | 75 | 1001.5 |
| 20260505091548 | 20 | 112 | 1.6 | 17.7 | 0.00 | 0.00 | 0.00 | 75 | 1001.5 |
| 20260505091025 | 20 | 85 | 3.2 | 17.7 | 0.00 | 0.00 | 0.00 | 74 | 1001.6 |
| 20260505090528 | 20 | 84 | 3.2 | 11.3 | 0.00 | 0.00 | 0.00 | 74 | 1001.7 |
| 20260505090043 | 20 | 0 | 4.8 | 11.3 | 0.00 | 0.00 | 0.00 | 74 | 1001.7 |
| 20260505085528 | 20 | 75 | 1.6 | 11.3 | 0.00 | 0.00 | 0.00 | 74 | 1001.7 |
| 20260505085028 | 20 | 340 | 1.6 | 11.3 | 0.00 | 0.00 | 0.00 | 74 | 1001.7 |
| 20260505084544 | 20 | 87 | 1.6 | 12.9 | 0.00 | 0.00 | 0.00 | 74 | 1001.7 |
| 20260505084027 | 20 | 309 | 1.6 | 12.9 | 0.00 | 0.00 | 0.00 | 74 | 1001.7 |
| 20260505083528 | 20 | 46 | 3.2 | 12.9 | 0.00 | 0.00 | 0.00 | 74 | 1001.7 |
| 20260505083041 | 20 | 60 | 3.2 | 12.9 | 0.00 | 0.00 | 0.00 | 74 | 1001.7 |
| 20260505082527 | 20 | 79 | 4.8 | 12.9 | 0.00 | 0.00 | 0.00 | 73 | 1001.9 |
| 20260505082027 | 20 | 77 | 4.8 | 9.7 | 0.00 | 0.00 | 0.00 | 73 | 1001.9 |
| 20260505081539 | 20 | 94 | 1.6 | 11.3 | 0.00 | 0.00 | 0.00 | 73 | 1002.0 |
| 20260505081027 | 20 | 150 | 3.2 | 11.3 | 0.00 | 0.00 | 0.00 | 73 | 1002.0 |
| 20260505080529 | 20 | 70 | 6.4 | 14.5 | 0.00 | 0.00 | 0.00 | 73 | 1001.8 |
| 20260505080058 | 20 | 98 | 6.4 | 19.3 | 0.00 | 0.00 | 0.00 | 73 | 1002.1 |
| 20260505075528 | 20 | 113 | 6.4 | 19.3 | 0.00 | 0.00 | 0.00 | 73 | 1002.1 |
| 20260505075028 | 20 | 89 | 6.4 | 14.5 | 0.00 | 0.00 | 0.00 | 72 | 1002.1 |
| 20260505074544 | 20 | 0 | 3.2 | 16.1 | 0.00 | 0.00 | 0.00 | 73 | 1002.2 |
| 20260505074028 | 20 | 70 | 4.8 | 16.1 | 0.00 | 0.00 | 0.00 | 72 | 1002.3 |
| 20260505073529 | 20 | 86 | 4.8 | 16.1 | 0.00 | 0.00 | 0.00 | 72 | 1002.4 |
| 20260505073047 | 21 | 77 | 1.6 | 12.9 | 0.00 | 0.00 | 0.00 | 72 | 1002.5 |
| 20260505072531 | 21 | 64 | 6.4 | 12.9 | 0.00 | 0.00 | 0.00 | 72 | 1002.5 |
| 20260505072028 | 21 | 72 | 6.4 | 11.3 | 0.00 | 0.00 | 0.00 | 72 | 1002.6 |
| 20260505071551 | 21 | 84 | 4.8 | 11.3 | 0.00 | 0.00 | 0.00 | 71 | 1002.7 |
| 20260505071028 | 21 | 76 | 3.2 | 8.0 | 0.00 | 0.00 | 0.00 | 72 | 1002.7 |
| 20260505070530 | 21 | 77 | 1.6 | 6.4 | 0.00 | 0.00 | 0.00 | 72 | 1002.7 |
| 20260505070042 | 21 | 86 | 1.6 | 6.4 | 0.00 | 0.00 | 0.00 | 71 | 1002.7 |
| 20260505065527 | 21 | 86 | 1.6 | 9.7 | 0.00 | 0.00 | 0.00 | 72 | 1002.6 |
| 20260505065027 | 21 | 87 | 3.2 | 9.7 | 0.00 | 0.00 | 0.00 | 72 | 1002.8 |
| 20260505064545 | 21 | 51 | 3.2 | 6.4 | 0.00 | 0.00 | 0.00 | 72 | 1003.0 |
| 20260505064028 | 21 | 82 | 1.6 | 6.4 | 0.00 | 0.00 | 0.00 | 72 | 1003.2 |
| 20260505063528 | 21 | 64 | 3.2 | 6.4 | 0.00 | 0.00 | 0.00 | 72 | 1003.1 |
| 20260505063048 | 21 | 94 | 1.6 | 4.8 | 0.00 | 0.00 | 0.00 | 72 | 1003.1 |
| 20260505062528 | 21 | 23 | 0.0 | 4.8 | 0.00 | 0.00 | 0.00 | 71 | 1003.2 |
| 20260505062029 | 21 | 65 | 1.6 | 6.4 | 0.00 | 0.00 | 0.00 | 71 | 1002.9 |
| 20260505061604 | 21 | 167 | 0.0 | 6.4 | 0.00 | 0.00 | 0.00 | 71 | 1002.6 |
| 20260505061027 | 21 | 174 | 1.6 | 8.0 | 0.00 | 0.00 | 0.00 | 71 | 1002.3 |
| 20260505060531 | 21 | 0 | 1.6 | 8.0 | 0.00 | 0.00 | 0.00 | 71 | 1002.2 |
| 20260505060044 | 21 | 58 | 1.6 | 8.0 | 0.00 | 0.00 | 0.00 | 70 | 1002.1 |
| 20260505055526 | 21 | 160 | 1.6 | 9.7 | 0.00 | 0.00 | 0.00 | 70 | 1002.1 |
| 20260505055027 | 21 | 297 | 1.6 | 11.3 | 0.00 | 0.00 | 0.00 | 70 | 1002.1 |
| 20260505054544 | 21 | 174 | 1.6 | 11.3 | 0.00 | 0.00 | 0.00 | 70 | 1002.2 |
| 20260505054027 | 21 | 170 | 1.6 | 9.7 | 0.00 | 0.00 | 0.00 | 70 | 1002.2 |
| 20260505053527 | 21 | 167 | 4.8 | 9.7 | 0.00 | 0.00 | 0.00 | 70 | 1002.2 |
| 20260505053046 | 21 | 127 | 3.2 | 9.7 | 0.00 | 0.00 | 0.00 | 70 | 1002.5 |
| 20260505052531 | 21 | 172 | 1.6 | 9.7 | 0.00 | 0.00 | 0.00 | 69 | 1002.5 |
| 20260505052027 | 21 | 0 | 0.0 | 12.9 | 0.00 | 0.00 | 0.00 | 69 | 1002.7 |
| 20260505051605 | 21 | 103 | 1.6 | 12.9 | 0.00 | 0.00 | 0.00 | 69 | 1002.5 |
| 20260505051026 | 21 | 37 | 3.2 | 12.9 | 0.00 | 0.00 | 0.00 | 69 | 1002.5 |
| 20260505050527 | 21 | 0 | 1.6 | 9.7 | 0.00 | 0.00 | 0.00 | 69 | 1002.5 |
| 20260505041548 | 21 | 165 | 1.6 | 11.3 | 0.00 | 0.00 | 0.00 | 66 | 1002.3 |
| 20260505041030 | 21 | 136 | 3.2 | 12.9 | 0.00 | 0.00 | 0.00 | 66 | 1002.5 |
| 20260505040528 | 21 | 227 | 3.2 | 12.9 | 0.00 | 0.00 | 0.00 | 66 | 1002.6 |
| 20260505040046 | 21 | 105 | 4.8 | 19.3 | 0.00 | 0.00 | 0.00 | 66 | 1002.7 |
| 20260505035529 | 21 | 106 | 3.2 | 19.3 | 0.00 | 0.00 | 0.00 | 66 | 1002.9 |
| 20260505035027 | 21 | 160 | 3.2 | 12.9 | 0.00 | 0.00 | 0.00 | 66 | 1002.8 |
| 20260505034538 | 21 | 131 | 3.2 | 12.9 | 0.00 | 0.00 | 0.00 | 66 | 1002.6 |
| 20260505034033 | 21 | 129 | 4.8 | 16.1 | 0.00 | 0.00 | 0.00 | 66 | 1002.8 |
| 20260505033533 | 21 | 188 | 4.8 | 16.1 | 0.00 | 0.00 | 0.00 | 66 | 1003.1 |
| 20260505033042 | 21 | 160 | 4.8 | 16.1 | 0.00 | 0.00 | 0.00 | 65 | 1003.0 |
| 20260505032529 | 21 | 145 | 4.8 | 12.9 | 0.00 | 0.00 | 0.00 | 63 | 1003.2 |
| 20260505032027 | 21 | 193 | 3.2 | 12.9 | 0.00 | 0.00 | 0.00 | 63 | 1003.3 |
| 20260505031540 | 21 | 58 | 4.8 | 12.9 | 0.00 | 0.00 | 0.00 | 62 | 1003.3 |
| 20260505031027 | 21 | 102 | 4.8 | 12.9 | 0.00 | 0.00 | 0.00 | 62 | 1003.4 |
| 20260505030530 | 21 | 158 | 3.2 | 11.3 | 0.00 | 0.00 | 0.00 | 62 | 1003.4 |
| 20260505030038 | 21 | 120 | 3.2 | 14.5 | 0.00 | 0.00 | 0.00 | 62 | 1003.4 |
| 20260505025529 | 22 | 0 | 4.8 | 14.5 | 0.00 | 0.00 | 0.00 | 62 | 1003.6 |
| 20260505025029 | 22 | 140 | 3.2 | 12.9 | 0.00 | 0.00 | 0.00 | 62 | 1003.6 |
| 20260505024547 | 22 | 311 | 3.2 | 11.3 | 0.00 | 0.00 | 0.00 | 61 | 1003.7 |
| 20260505024030 | 22 | 136 | 3.2 | 11.3 | 0.00 | 0.00 | 0.00 | 61 | 1003.6 |
| 20260505023530 | 22 | 153 | 4.8 | 11.3 | 0.00 | 0.00 | 0.00 | 61 | 1003.6 |
| 20260505023044 | 22 | 131 | 3.2 | 11.3 | 0.00 | 0.00 | 0.00 | 60 | 1003.6 |
| 20260505022527 | 22 | 156 | 1.6 | 11.3 | 0.00 | 0.00 | 0.00 | 60 | 1003.7 |
| 20260505022029 | 22 | 236 | 1.6 | 12.9 | 0.00 | 0.00 | 0.00 | 60 | 1003.5 |
| 20260505021539 | 22 | 215 | 4.8 | 12.9 | 0.00 | 0.00 | 0.00 | 60 | 1003.5 |
| 20260505021029 | 22 | 124 | 1.6 | 9.7 | 0.00 | 0.00 | 0.00 | 60 | 1003.6 |
| 20260505020527 | 22 | 139 | 1.6 | 14.5 | 0.00 | 0.00 | 0.00 | 60 | 1003.5 |
| 20260505020038 | 22 | 151 | 3.2 | 14.5 | 0.00 | 0.00 | 0.00 | 59 | 1003.6 |
| 20260505015528 | 22 | 153 | 3.2 | 12.9 | 0.00 | 0.00 | 0.00 | 59 | 1003.6 |
| 20260505015030 | 22 | 76 | 3.2 | 12.9 | 0.00 | 0.00 | 0.00 | 59 | 1003.6 |
| 20260505014538 | 22 | 233 | 6.4 | 14.5 | 0.00 | 0.00 | 0.00 | 59 | 1003.5 |
| 20260505014029 | 23 | 127 | 3.2 | 16.1 | 0.00 | 0.00 | 0.00 | 59 | 1003.4 |
| 20260505013527 | 23 | 136 | 6.4 | 16.1 | 0.00 | 0.00 | 0.00 | 59 | 1003.5 |
| 20260505013044 | 23 | 175 | 1.6 | 12.9 | 0.00 | 0.00 | 0.00 | 59 | 1003.5 |
| 20260505012526 | 23 | 102 | 4.8 | 12.9 | 0.00 | 0.00 | 0.00 | 59 | 1003.5 |
| 20260505012031 | 23 | 134 | 3.2 | 12.9 | 0.00 | 0.00 | 0.00 | 59 | 1003.4 |
| 20260505011544 | 23 | 150 | 3.2 | 12.9 | 0.00 | 0.00 | 0.00 | 58 | 1003.4 |
| 20260505011027 | 23 | 292 | 1.6 | 9.7 | 0.00 | 0.00 | 0.00 | 58 | 1003.3 |
| 20260505010530 | 23 | 112 | 1.6 | 8.0 | 0.00 | 0.00 | 0.00 | 58 | 1003.3 |
| 20260505010053 | 23 | 139 | 1.6 | 17.7 | 0.00 | 0.00 | 0.00 | 58 | 1003.3 |
| 20260505005530 | 23 | 210 | 1.6 | 17.7 | 0.00 | 0.00 | 0.00 | 58 | 1003.3 |
| 20260505005030 | 24 | 167 | 1.6 | 11.3 | 0.00 | 0.00 | 0.00 | 58 | 1003.3 |
| 20260505004541 | 24 | 149 | 1.6 | 11.3 | 0.00 | 0.00 | 0.00 | 57 | 1003.4 |
| 20260505004028 | 24 | 115 | 1.6 | 11.3 | 0.00 | 0.00 | 0.00 | 57 | 1003.3 |
| 20260505003528 | 24 | 167 | 3.2 | 11.3 | 0.00 | 0.00 | 0.00 | 56 | 1003.2 |
| 20260505003041 | 24 | 236 | 3.2 | 11.3 | 0.00 | 0.00 | 0.00 | 56 | 1003.4 |
| 20260505002529 | 25 | 225 | 3.2 | 11.3 | 0.00 | 0.00 | 0.00 | 55 | 1003.3 |
| 20260505002029 | 25 | 155 | 3.2 | 11.3 | 0.00 | 0.00 | 0.00 | 55 | 1003.5 |
| 20260505001540 | 25 | 339 | 1.6 | 11.3 | 0.00 | 0.00 | 0.00 | 55 | 1003.5 |
| 20260505001029 | 25 | 191 | 1.6 | 11.3 | 0.00 | 0.00 | 0.00 | 55 | 1003.6 |
| 20260505000530 | 25 | 0 | 1.6 | 12.9 | 0.00 | 0.00 | 0.00 | 55 | 1003.7 |
| 20260505000044 | 25 | 283 | 0.0 | 12.9 | 0.00 | 0.00 | 0.00 | 55 | 1003.7 |
| 20260504235527 | 25 | 247 | 3.2 | 14.5 | 0.00 | 0.00 | 0.00 | 54 | 1003.7 |
| 20260504235031 | 25 | 143 | 1.6 | 14.5 | 0.00 | 0.00 | 0.00 | 54 | 1003.8 |
| 20260504234545 | 25 | 69 | 1.6 | 14.5 | 0.00 | 0.00 | 0.00 | 54 | 1003.8 |
| 20260504234030 | 25 | 0 | 3.2 | 17.7 | 0.00 | 0.00 | 0.00 | 54 | 1003.8 |
| 20260504233528 | 25 | 113 | 3.2 | 17.7 | 0.00 | 0.00 | 0.00 | 54 | 1003.7 |
| 20260504233052 | 25 | 247 | 3.2 | 14.5 | 0.00 | 0.00 | 0.00 | 54 | 1003.7 |
| 20260504232529 | 26 | 151 | 1.6 | 14.5 | 0.00 | 0.00 | 0.00 | 54 | 1003.7 |
| 20260504232029 | 26 | 92 | 3.2 | 14.5 | 0.00 | 0.00 | 0.00 | 53 | 1003.7 |
| 20260504231545 | 26 | 264 | 3.2 | 12.9 | 0.00 | 0.00 | 0.00 | 53 | 1003.8 |
| 20260504231028 | 26 | 122 | 1.6 | 12.9 | 0.00 | 0.00 | 0.00 | 54 | 1003.7 |
| 20260504230530 | 26 | 212 | 1.6 | 12.9 | 0.00 | 0.00 | 0.00 | 53 | 1003.8 |
| 20260504230052 | 26 | 227 | 3.2 | 19.3 | 0.00 | 0.00 | 0.00 | 53 | 1003.8 |
| 20260504225529 | 26 | 233 | 1.6 | 19.3 | 0.00 | 0.00 | 0.00 | 52 | 1003.9 |
| 20260504225029 | 26 | 47 | 6.4 | 19.3 | 0.00 | 0.00 | 0.00 | 52 | 1003.8 |
| 20260504224545 | 26 | 230 | 3.2 | 16.1 | 0.00 | 0.00 | 0.00 | 52 | 1003.8 |
| 20260504224029 | 26 | 0 | 3.2 | 16.1 | 0.00 | 0.00 | 0.00 | 51 | 1003.9 |
| 20260504223530 | 26 | 226 | 3.2 | 16.1 | 0.00 | 0.00 | 0.00 | 52 | 1003.8 |
| 20260504223045 | 26 | 160 | 3.2 | 16.1 | 0.00 | 0.00 | 0.00 | 51 | 1003.7 |
| 20260504222529 | 26 | 176 | 3.2 | 19.3 | 0.00 | 0.00 | 0.00 | 51 | 1003.7 |
| 20260504222029 | 26 | 229 | 3.2 | 19.3 | 0.00 | 0.00 | 0.00 | 51 | 1003.7 |
| 20260504221543 | 26 | 49 | 4.8 | 17.7 | 0.00 | 0.00 | 0.00 | 51 | 1003.7 |
| 20260504221100 | 27 | 221 | 4.8 | 14.5 | 0.00 | 0.00 | 0.00 | 51 | 1003.6 |
| 20260504220528 | 27 | 171 | 3.2 | 19.3 | 0.00 | 0.00 | 0.00 | 51 | 1003.5 |
| 20260504220051 | 27 | 181 | 3.2 | 19.3 | 0.00 | 0.00 | 0.00 | 50 | 1003.6 |
| 20260504215529 | 27 | 96 | 3.2 | 19.3 | 0.00 | 0.00 | 0.00 | 49 | 1003.7 |
| 20260504215030 | 27 | 67 | 3.2 | 14.5 | 0.00 | 0.00 | 0.00 | 50 | 1003.8 |
| 20260504214550 | 27 | 91 | 1.6 | 14.5 | 0.00 | 0.00 | 0.00 | 50 | 1003.9 |
| 20260504214032 | 27 | 169 | 1.6 | 12.9 | 0.00 | 0.00 | 0.00 | 51 | 1003.8 |
| 20260504213533 | 27 | 129 | 1.6 | 12.9 | 0.00 | 0.00 | 0.00 | 50 | 1003.8 |
| 20260504213047 | 27 | 218 | 1.6 | 14.5 | 0.00 | 0.00 | 0.00 | 50 | 1003.8 |
| 20260504212530 | 27 | 250 | 4.8 | 14.5 | 0.00 | 0.00 | 0.00 | 49 | 1003.9 |
| 20260504212030 | 27 | 209 | 3.2 | 20.9 | 0.00 | 0.00 | 0.00 | 49 | 1003.9 |
| 20260504211544 | 27 | 333 | 4.8 | 20.9 | 0.00 | 0.00 | 0.00 | 49 | 1003.9 |
| 20260504211029 | 27 | 219 | 4.8 | 20.9 | 0.00 | 0.00 | 0.00 | 48 | 1003.9 |
| 20260504210529 | 27 | 119 | 4.8 | 9.7 | 0.00 | 0.00 | 0.00 | 48 | 1004.0 |
| 20260504210054 | 27 | 150 | 1.6 | 16.1 | 0.00 | 0.00 | 0.00 | 49 | 1004.1 |
| 20260504205529 | 27 | 39 | 3.2 | 17.7 | 0.00 | 0.00 | 0.00 | 49 | 1004.1 |
| 20260504205028 | 27 | 128 | 4.8 | 17.7 | 0.00 | 0.00 | 0.00 | 47 | 1004.1 |
| 20260504204548 | 27 | 195 | 1.6 | 17.7 | 0.00 | 0.00 | 0.00 | 48 | 1004.3 |
| 20260504204029 | 27 | 49 | 3.2 | 17.7 | 0.00 | 0.00 | 0.00 | 48 | 1004.3 |
| 20260504203529 | 27 | 250 | 4.8 | 17.7 | 0.00 | 0.00 | 0.00 | 48 | 1004.4 |
| 20260504203100 | 28 | 290 | 1.6 | 14.5 | 0.00 | 0.00 | 0.00 | 48 | 1004.5 |
| 20260504202530 | 28 | 241 | 3.2 | 19.3 | 0.00 | 0.00 | 0.00 | 48 | 1004.6 |
| 20260504202029 | 28 | 194 | 3.2 | 19.3 | 0.00 | 0.00 | 0.00 | 48 | 1004.6 |
| 20260504201540 | 28 | 214 | 3.2 | 19.3 | 0.00 | 0.00 | 0.00 | 47 | 1004.8 |
| 20260504201027 | 27 | 118 | 3.2 | 17.7 | 0.00 | 0.00 | 0.00 | 48 | 1004.7 |
| 20260504200527 | 28 | 134 | 3.2 | 14.5 | 0.00 | 0.00 | 0.00 | 47 | 1004.9 |
| 20260504200046 | 28 | 262 | 4.8 | 14.5 | 0.00 | 0.00 | 0.00 | 46 | 1004.9 |
| 20260504195529 | 28 | 172 | 3.2 | 12.9 | 0.00 | 0.00 | 0.00 | 47 | 1005.0 |
| 20260504195029 | 28 | 346 | 3.2 | 12.9 | 0.00 | 0.00 | 0.00 | 48 | 1005.0 |
| 20260504194546 | 28 | 218 | 1.6 | 16.1 | 0.00 | 0.00 | 0.00 | 47 | 1005.1 |
| 20260504194028 | 28 | 144 | 4.8 | 16.1 | 0.00 | 0.00 | 0.00 | 46 | 1005.0 |
| 20260504193532 | 28 | 267 | 3.2 | 14.5 | 0.00 | 0.00 | 0.00 | 47 | 1005.2 |
| 20260504193048 | 28 | 210 | 4.8 | 14.5 | 0.00 | 0.00 | 0.00 | 47 | 1005.1 |
| 20260504192529 | 28 | 103 | 3.2 | 12.9 | 0.00 | 0.00 | 0.00 | 48 | 1005.2 |
| 20260504192029 | 27 | 224 | 3.2 | 25.7 | 0.00 | 0.00 | 0.00 | 48 | 1005.2 |
| 20260504191542 | 27 | 204 | 4.8 | 29.0 | 0.00 | 0.00 | 0.00 | 47 | 1005.2 |
| 20260504191029 | 27 | 222 | 6.4 | 29.0 | 0.00 | 0.00 | 0.00 | 47 | 1005.2 |
| 20260504190527 | 27 | 200 | 4.8 | 19.3 | 0.00 | 0.00 | 0.00 | 47 | 1005.3 |
| 20260504190106 | 27 | 217 | 8.0 | 25.7 | 0.00 | 0.00 | 0.00 | 47 | 1005.4 |
| 20260504185534 | 28 | 231 | 6.4 | 25.7 | 0.00 | 0.00 | 0.00 | 48 | 1005.4 |
| 20260504185029 | 28 | 207 | 6.4 | 20.9 | 0.00 | 0.00 | 0.00 | 47 | 1005.6 |
| 20260504184543 | 28 | 206 | 4.8 | 17.7 | 0.00 | 0.00 | 0.00 | 48 | 1005.6 |
| 20260504184029 | 28 | 84 | 4.8 | 17.7 | 0.00 | 0.00 | 0.00 | 47 | 1005.7 |
| 20260504183529 | 28 | 240 | 3.2 | 17.7 | 0.00 | 0.00 | 0.00 | 48 | 1005.7 |
| 20260504183041 | 28 | 258 | 4.8 | 17.7 | 0.00 | 0.00 | 0.00 | 47 | 1005.8 |
| 20260504182531 | 28 | 233 | 1.6 | 16.1 | 0.00 | 0.00 | 0.00 | 48 | 1005.8 |
| 20260504182031 | 27 | 118 | 1.6 | 16.1 | 0.00 | 0.00 | 0.00 | 49 | 1005.9 |
| 20260504181542 | 27 | 187 | 6.4 | 27.4 | 0.00 | 0.00 | 0.00 | 47 | 1006.1 |
| 20260504181027 | 27 | 95 | 6.4 | 27.4 | 0.00 | 0.00 | 0.00 | 47 | 1006.1 |
| 20260504180531 | 27 | 8 | 3.2 | 17.7 | 0.00 | 0.00 | 0.00 | 47 | 1006.1 |
| 20260504180045 | 27 | 12 | 3.2 | 17.7 | 0.00 | 0.00 | 0.00 | 48 | 1006.2 |
| 20260504175528 | 27 | 241 | 3.2 | 17.7 | 0.00 | 0.00 | 0.00 | 47 | 1006.3 |
| 20260504175029 | 27 | 119 | 6.4 | 17.7 | 0.00 | 0.00 | 0.00 | 46 | 1006.5 |
| 20260504174542 | 27 | 255 | 3.2 | 19.3 | 0.00 | 0.00 | 0.00 | 49 | 1006.5 |
| 20260504174029 | 27 | 283 | 3.2 | 19.3 | 0.00 | 0.00 | 0.00 | 47 | 1006.6 |
| 20260504173528 | 27 | 89 | 4.8 | 16.1 | 0.00 | 0.00 | 0.00 | 47 | 1006.8 |
| 20260504173040 | 27 | 102 | 4.8 | 22.5 | 0.00 | 0.00 | 0.00 | 48 | 1006.7 |
| 20260504172527 | 27 | 211 | 4.8 | 22.5 | 0.00 | 0.00 | 0.00 | 48 | 1006.8 |
| 20260504172030 | 27 | 25 | 4.8 | 22.5 | 0.00 | 0.00 | 0.00 | 47 | 1006.8 |
| 20260504171543 | 27 | 260 | 6.4 | 17.7 | 0.00 | 0.00 | 0.00 | 47 | 1006.8 |
| 20260504171031 | 27 | 328 | 3.2 | 12.9 | 0.00 | 0.00 | 0.00 | 49 | 1006.9 |
| 20260504170528 | 27 | 255 | 3.2 | 12.9 | 0.00 | 0.00 | 0.00 | 48 | 1006.9 |
| 20260504151029 | 23 | 256 | 3.2 | 11.3 | 0.00 | 0.00 | 0.00 | 50 | 1007.9 |
| 20260504150531 | 23 | 267 | 3.2 | 12.9 | 0.00 | 0.00 | 0.00 | 51 | 1008.1 |
| 20260504141026 | 21 | 166 | 1.6 | 12.9 | 0.00 | 0.00 | 0.00 | 54 | 1008.7 |
| 20260504140529 | 21 | 167 | 4.8 | 12.9 | 0.00 | 0.00 | 0.00 | 54 | 1008.6 |